Regional Weather Roundup
Issued by NWS

Home | Current Version | Previous Version | Text Only | Print | Product List | Glossary Off
Versions: 1 2 3 4 5 6 7 8 9 10 11 12 13 14 15 16 17 18 19 20 21 22 23 24 25 26 27 28 29 30 31 32 33 34 35 36 37 38 39 40 41 42 43 44 45 46 47 48 49 50

000
ASUS43 KLSX 260059
RWRMO

WEATHER SUMMARY FOR MISSOURI
NATIONAL WEATHER SERVICE SPRINGFIELD MO
800 PM CDT THU MAY 25 2017

NOTE: "FAIR" INDICATES FEW OR NO CLOUDS BELOW 12,000 FEET WITH NO
       SIGNIFICANT WEATHER AND/OR OBSTRUCTIONS TO VISIBILITY.
       CURRENT SKY AND/OR WEATHER CONDITIONS ARE NOT AVAILABLE FOR
       CHILLICOTHE AND FARMINGTON.

MOZ001>031-035>038-043-044-053-054-260200-
...NORTHERN AND WESTERN MISSOURI...

CITY           SKY/WX    TMP DP  RH WIND       PRES   REMARKS
KANSAS CTY INT PTCLDY    72  55  55 SE13G23   29.58R
KANSAS C DTWN  CLEAR     75  54  47 SE12G20   29.57S
LEE`S SUMMIT   CLEAR     72  56  57 SE13      29.60S
ST JOSEPH      CLEAR     73  56  54 SE13      29.58R
CHILLICOTHE      N/A     71  53  52 SE7       29.65R
KIRKSVILLE     CLEAR     67  53  61 SE8       29.67R

$$
MOZ066>068-077>081-088>096-101>105-260200-
...SOUTHWEST MISSOURI...

CITY           SKY/WX    TMP DP  RH WIND       PRES   REMARKS
SPRINGFIELD    CLEAR     73  55  53 SE17G26   29.64F
JOPLIN         CLEAR     75  59  57 S8        29.61R
BRANSON        PTCLDY    72  57  60 SE10      29.70R

$$
MOZ032>034-039>042-045>050-055>058-069>072-260200-
...CENTRAL MISSOURI...

CITY           SKY/WX    TMP DP  RH WIND       PRES   REMARKS
COLUMBIA       CLEAR     69  53  56 SE6       29.67S
JEFFERSON CITY PTCLDY    74  53  48 SE9       29.66S
ROLLA          CLEAR     67  55  65 SE6       29.69S
SEDALIA        PTCLDY    73  57  57 SE13      29.64F
WARRENSBURG    PTCLDY    70  54  56 SE8       29.62R
OSAGE BEACH    MOCLDY    71  56  58 SE5       29.68R

$$
MOZ051-052-059>065-260200-
...EAST CENTRAL MISSOURI...

CITY           SKY/WX    TMP DP  RH WIND       PRES   REMARKS
ST LOUIS INTL  PTCLDY    75  48  38 S7        29.72R
SPIRIT OF STL  PTCLDY    69  56  62 SE3       29.70S
ST CHARLES     CLEAR     71  49  45 S7        29.70R

$$
MOZ072>076-082>087-097>100-106>115-260200-
...SOUTH CENTRAL AND SOUTHEAST MISSOURI...

CITY           SKY/WX    TMP DP  RH WIND       PRES   REMARKS
CAPE GIRARDEAU CLEAR     69  53  56 S6        29.74S
FARMINGTON     CLEAR     68  53  58 S5        29.75R
POPLAR BLUFF   CLEAR     70  55  59 S5        29.74S
WEST PLAINS    CLEAR     70  54  56 S6        29.74R

$$



USA.gov is the U.S. government's official web portal to all federal, state and local government web resources and services.